Flag for U.S.A. Weather past 2 weeks in Juneau, Alaska, U.S.A.

Now
58 °F

Scattered clouds.


Feels Like: 57 °F
Forecast: 48 / 66 °F
Wind: 7 mph from Southwest

Location: Juneau International Airport

Current Time: Jul 31, 2014 at 12:06:51 PM

Latest Report: Jul 31, 2014 at 10:53 AM


Visibility: 10 mi

Pressure: 30.30 "Hg

Humidity: 81%

Dew point: 52 °F

Location of JuneauLocation

Historic Weather in Juneau — Graph

°F

Juneau temperature yesterday

Maximum temperature yesterday: 62 °F (at 4:53 PM)
Minimum temperature yesterday: 53 °F (at 12:53 AM)
Average temperature yesterday: 56 °F

Past Weeks' High & Low Weather Summary

 TemperatureHumidityPressure
High71 °F (Jul 21, 6:53 PM)100% (Jul 21, 4:53 AM)30.32 "Hg (Jul 21, 4:53 AM)
Low45 °F (Jul 31, 4:53 AM)42% (Jul 18, 3:53 PM)29.61 "Hg (Jul 18, 5:53 PM)
Average56 °F84%29.98 "Hg
* Reported Jul 16 10:53 AM — Jul 31 10:53 AM, Juneau, Weather by CustomWeather, © 2014

Note: Actual official high and low records may vary slightly from our data, if they occured in-between our weather recording intervals... More about our weather records

Advertising

Juneau weather history for previous 24 hours

 ConditionsComfort  
Time TempWeatherWind HumidityBarometerVisibility
10:53 AM
Jul 31
58 °FScattered clouds.7 mph81%30.30 "Hg10 mi
9:53 AM56 °FScattered clouds.5 mph87%30.31 "Hg10 mi
8:53 AM54 °FFog.5 mph93%30.32 "Hg2 mi
7:53 AM51 °FFog.No wind100%30.32 "Hg1 mi
6:53 AM50 °FFog.No wind96%30.32 "Hg1 mi
5:53 AM47 °FPartly sunny.No wind97%30.32 "Hg7 mi
4:53 AM45 °FPassing clouds.3 mph100%30.31 "Hg10 mi
3:53 AM46 °FPassing clouds.No wind100%30.31 "Hg10 mi
2:53 AM49 °FPassing clouds.No wind100%30.31 "Hg10 mi
1:53 AM48 °FPassing clouds.No wind96%30.31 "Hg10 mi
12:53 AM51 °FPassing clouds.No wind92%30.32 "Hg10 mi
11:53 PM
Jul 30
53 °FPartly cloudy.No wind89%30.32 "Hg10 mi
10:53 PM55 °FPartly cloudy.No wind90%30.31 "Hg10 mi
9:53 PM55 °FMostly cloudy.No wind93%30.31 "Hg10 mi
8:53 PM57 °FLight rain. Cloudy.No wind90%30.30 "Hg10 mi
7:53 PM59 °FMostly cloudy.5 mph78%30.29 "Hg10 mi
6:53 PM59 °FBroken clouds.8 mph78%30.29 "Hg10 mi
5:53 PM60 °FPartly sunny.8 mph75%30.28 "Hg10 mi
4:53 PM62 °FBroken clouds.8 mph73%30.27 "Hg10 mi
3:53 PM61 °FLight rain. Broken clouds.8 mph75%30.27 "Hg10 mi
2:53 PM60 °FBroken clouds.8 mph75%30.27 "Hg10 mi
1:53 PM58 °FLight rain. Broken clouds.9 mph84%30.26 "Hg10 mi
12:53 PM59 °FLight rain. Partly sunny.12 mph84%30.26 "Hg10 mi
Weather by CustomWeather, © 2014

See weather overviewHow to use our weather pages